Hourly Weather Aberdeen

Today, 26 January, Tuesday

Time Temperature Precipitation Wind Pressure Humidity
00:00 -2°C° 0 mm 2 mps 749 mmHg 89%
01:00 -2°C° 0.2 mm 2 mps 749 mmHg 88%
02:00 -2°C° 0.2 mm 2 mps 749 mmHg 87%
03:00 -2°C° 0.2 mm 2 mps 750 mmHg 86%
04:00 -2°C° 0 mm 2 mps 750 mmHg 86%
05:00 -2°C° 0 mm 2 mps 750 mmHg 85%
06:00 0°C° 0 mm 1 mps 750 mmHg 86%
07:00 0°C° 0 mm 1 mps 750 mmHg 86%
08:00 0°C° 0 mm 1 mps 750 mmHg 87%
09:00 0°C° 0 mm 0 mps 749 mmHg 88%
10:00 0°C° 0 mm 0 mps 749 mmHg 87%
11:00 +2°C° 0 mm 1 mps 749 mmHg 87%
12:00 +2°C° 0 mm 1 mps 749 mmHg 86%
13:00 +2°C° 0.3 mm 1 mps 748 mmHg 89%
14:00 +1°C° 0.3 mm 2 mps 748 mmHg 92%
15:00 +1°C° 0.3 mm 2 mps 747 mmHg 95%
16:00 0°C° 1.4 mm 3 mps 747 mmHg 96%
17:00 0°C° 1.4 mm 3 mps 746 mmHg 97%
18:00 0°C° 1.4 mm 3 mps 746 mmHg 98%
19:00 0°C° 0.4 mm 3 mps 745 mmHg 98%
20:00 +2°C° 0.4 mm 2 mps 745 mmHg 98%
21:00 +2°C° 0.4 mm 2 mps 745 mmHg 98%
22:00 +3°C° 0.4 mm 1 mps 745 mmHg 98%
23:00 +3°C° 0.4 mm 1 mps 745 mmHg 98%

Tomorrow, 27 January, Wednesday

Time Temperature Precipitation Wind Pressure Humidity
00:00 +3°C° 0.4 mm 1 mps 745 mmHg 98%
01:00 +3°C° 0.1 mm 1 mps 745 mmHg 98%
02:00 +3°C° 0.1 mm 1 mps 745 mmHg 98%
03:00 +3°C° 0.1 mm 1 mps 745 mmHg 98%
04:00 +2°C° 0.2 mm 2 mps 745 mmHg 97%
05:00 +2°C° 0.2 mm 2 mps 746 mmHg 97%
06:00 +2°C° 0.2 mm 2 mps 746 mmHg 97%
07:00 +2°C° 0.1 mm 2 mps 747 mmHg 96%
08:00 +1°C° 0.1 mm 2 mps 748 mmHg 95%
09:00 +1°C° 0.1 mm 2 mps 749 mmHg 95%
10:00 +1°C° 0 mm 3 mps 749 mmHg 94%
11:00 +1°C° 0 mm 3 mps 750 mmHg 94%
12:00 +1°C° 0 mm 3 mps 751 mmHg 94%
13:00 +2°C° 0 mm 2 mps 751 mmHg 92%
14:00 +2°C° 0 mm 2 mps 751 mmHg 91%
15:00 +2°C° 0 mm 2 mps 751 mmHg 90%
16:00 +1°C° 0 mm 2 mps 752 mmHg 89%
17:00 -1°C° 0 mm 2 mps 752 mmHg 88%
18:00 -2°C° 0 mm 2 mps 752 mmHg 87%
19:00 -2°C° 0 mm 2 mps 752 mmHg 85%
20:00 -3°C° 0 mm 2 mps 752 mmHg 84%
21:00 -3°C° 0 mm 2 mps 752 mmHg 82%
22:00 -3°C° 0 mm 2 mps 751 mmHg 81%
23:00 -3°C° 0 mm 2 mps 751 mmHg 80%

Day after tomorrow, 28 January, Thursday

Time Temperature Precipitation Wind Pressure Humidity
00:00 -2°C° 0 mm 2 mps 750 mmHg 79%
01:00 -2°C° 0 mm 2 mps 749 mmHg 80%
02:00 -2°C° 0 mm 2 mps 748 mmHg 81%
03:00 -1°C° 0 mm 2 mps 748 mmHg 81%
04:00 -1°C° 0 mm 3 mps 747 mmHg 83%
05:00 -1°C° 0 mm 3 mps 746 mmHg 84%
06:00 -1°C° 0 mm 4 mps 745 mmHg 86%
07:00 -1°C° 0.1 mm 4 mps 745 mmHg 87%
08:00 -1°C° 0.1 mm 4 mps 745 mmHg 89%
09:00 -1°C° 0.1 mm 4 mps 744 mmHg 90%
10:00 -1°C° 0.1 mm 4 mps 744 mmHg 90%
11:00 0°C° 0.1 mm 4 mps 744 mmHg 89%
12:00 0°C° 0.1 mm 5 mps 744 mmHg 89%
13:00 0°C° 0.3 mm 4 mps 744 mmHg 92%
14:00 0°C° 0.3 mm 4 mps 744 mmHg 94%
15:00 0°C° 0.3 mm 4 mps 743 mmHg 97%
16:00 -1°C° 0.1 mm 4 mps 743 mmHg 97%
17:00 0°C° 0.1 mm 3 mps 743 mmHg 97%
18:00 0°C° 0.1 mm 3 mps 743 mmHg 97%
19:00 -1°C° 0.4 mm 4 mps 743 mmHg 98%
20:00 -1°C° 0.4 mm 4 mps 743 mmHg 98%
21:00 0°C° 0.4 mm 4 mps 743 mmHg 98%
22:00 0°C° 0.1 mm 5 mps 742 mmHg 97%
23:00 0°C° 0.1 mm 5 mps 742 mmHg 97%

29 January, Friday

Time Temperature Precipitation Wind Pressure Humidity
00:00 0°C° 0.1 mm 5 mps 742 mmHg 96%
01:00 0°C° 0.2 mm 5 mps 742 mmHg 96%
02:00 0°C° 0.2 mm 5 mps 742 mmHg 97%
03:00 0°C° 0.2 mm 4 mps 741 mmHg 97%
04:00 0°C° 0.2 mm 4 mps 742 mmHg 97%
05:00 0°C° 0.2 mm 4 mps 742 mmHg 97%
06:00 0°C° 0.2 mm 4 mps 742 mmHg 97%
07:00 0°C° 0.1 mm 4 mps 743 mmHg 97%
08:00 0°C° 0.1 mm 4 mps 743 mmHg 97%
09:00 0°C° 0.1 mm 4 mps 744 mmHg 96%
10:00 0°C° 0.1 mm 4 mps 744 mmHg 94%
11:00 0°C° 0.1 mm 4 mps 745 mmHg 92%
12:00 +2°C° 0.1 mm 3 mps 745 mmHg 90%
13:00 +2°C° 0.1 mm 3 mps 746 mmHg 89%
14:00 +2°C° 0.1 mm 3 mps 746 mmHg 88%
15:00 +2°C° 0.1 mm 3 mps 746 mmHg 87%
16:00 0°C° 0 mm 4 mps 746 mmHg 87%
17:00 -1°C° 0 mm 4 mps 747 mmHg 87%
18:00 -2°C° 0 mm 4 mps 747 mmHg 87%
19:00 -2°C° 0 mm 4 mps 747 mmHg 86%
20:00 -3°C° 0 mm 4 mps 748 mmHg 84%
21:00 -3°C° 0 mm 4 mps 748 mmHg 83%
22:00 -3°C° 0 mm 4 mps 748 mmHg 82%
23:00 -4°C° 0 mm 3 mps 748 mmHg 82%

30 January, Saturday

Time Temperature Precipitation Wind Pressure Humidity
00:00 -4°C° 0 mm 3 mps 748 mmHg 82%
01:00 -4°C° 0 mm 3 mps 748 mmHg 83%
02:00 -4°C° 0 mm 3 mps 749 mmHg 83%
03:00 -4°C° 0 mm 3 mps 749 mmHg 84%
04:00 -4°C° 0 mm 3 mps 749 mmHg 83%
05:00 -2°C° 0 mm 3 mps 749 mmHg 83%
06:00 -2°C° 0 mm 3 mps 750 mmHg 83%
07:00 -2°C° 0 mm 3 mps 750 mmHg 83%
08:00 -2°C° 0 mm 3 mps 751 mmHg 84%
09:00 -2°C° 0 mm 3 mps 751 mmHg 85%
10:00 -1°C° 0 mm 3 mps 751 mmHg 83%
11:00 0°C° 0 mm 3 mps 752 mmHg 81%
12:00 +1°C° 0 mm 3 mps 752 mmHg 80%
13:00 +2°C° 0 mm 2 mps 753 mmHg 80%
14:00 +2°C° 0 mm 2 mps 753 mmHg 81%
15:00 +2°C° 0 mm 2 mps 753 mmHg 82%
16:00 +1°C° 0 mm 2 mps 754 mmHg 82%
17:00 -1°C° 0 mm 2 mps 754 mmHg 83%
18:00 -2°C° 0 mm 2 mps 754 mmHg 83%
19:00 0°C° 0 mm 1 mps 754 mmHg 83%
20:00 0°C° 0 mm 1 mps 754 mmHg 83%
21:00 0°C° 0 mm 1 mps 754 mmHg 83%
22:00 0°C° 0 mm 1 mps 754 mmHg 83%
23:00 0°C° 0 mm 1 mps 754 mmHg 84%

31 January, Sunday

Time Temperature Precipitation Wind Pressure Humidity
00:00 -1°C° 0 mm 0 mps 754 mmHg 85%
01:00 -1°C° 0 mm 0 mps 753 mmHg 86%
02:00 -1°C° 0 mm 0 mps 752 mmHg 87%
03:00 0°C° 0 mm 1 mps 752 mmHg 89%
04:00 0°C° 0 mm 1 mps 751 mmHg 89%
05:00 -1°C° 0 mm 2 mps 750 mmHg 89%
06:00 -1°C° 0 mm 3 mps 750 mmHg 89%
07:00 -2°C° 0 mm 4 mps 749 mmHg 85%
08:00 -1°C° 0 mm 5 mps 749 mmHg 82%
09:00 -1°C° 0 mm 5 mps 748 mmHg 78%
10:00 -2°C° 0 mm 6 mps 747 mmHg 76%
11:00 -1°C° 0 mm 6 mps 747 mmHg 73%
12:00 -1°C° 0 mm 7 mps 746 mmHg 71%
13:00 -1°C° 0 mm 7 mps 745 mmHg 72%
14:00 -1°C° 0 mm 7 mps 745 mmHg 73%
15:00 -1°C° 0 mm 7 mps 744 mmHg 73%
16:00 -2°C° 0.3 mm 7 mps 743 mmHg 80%
17:00 -2°C° 0.3 mm 7 mps 743 mmHg 86%
18:00 -2°C° 0.3 mm 8 mps 743 mmHg 92%
19:00 -2°C° 0.8 mm 8 mps 742 mmHg 93%
20:00 -3°C° 0.8 mm 9 mps 741 mmHg 93%
21:00 -1°C° 0.8 mm 9 mps 741 mmHg 94%
22:00 -3°C° 1.1 mm 9 mps 740 mmHg 95%
23:00 -3°C° 1.1 mm 9 mps 740 mmHg 95%
Show more